Location: Capelle
(50.3413°N, 1.9974°E)
Time: 19:49:14
(UTC+00:00)

Resurs 01 Rocket - Pass Details

Date: 13 April 2026
Orbit: 626 x 636 km, 97.7° (Epoch: 12 May)

Event Time Altitude Azimuth Distance (km) Brightness Sun altitude
Rises 19:43:49 0° 203° (SSW) 2,913 5.0 -9.8°
Reaches altitude 10° 19:46:29 10° 220° (SW) 2,009 4.3 -10.2°
Maximum altitude 19:49:45 20° 269° (W) 1,449 4.3 -10.6°
Drops below altitude 10° 19:53:02 10° 318° (NW) 2,017 5.5 -11.1°
Sets 19:55:45 0° 335° (NNW) 2,929 6.0 -11.5°
